Location: Chamerau
(49.1969°N, 12.7525°E)
Time: 06:03:00
(UTC+00:00)

Cosmos 2263 Rocket - Pass Details

Date: 18 September 2020
Orbit: 822 x 849 km, 71.0° (Epoch: 22 October)

Event Time Altitude Azimuth Distance (km) Brightness Sun altitude
Rises 19:33:06 0° 243° (WSW) 3,353 5.8 -22.3°
Reaches altitude 10° 19:35:51 10° 255° (WSW) 2,427 5.1 -22.7°
Maximum altitude 19:40:38 29° 314° (NW) 1,492 4.1 -23.3°
Drops below altitude 10° 19:45:28 10° 14° (NNE) 2,450 4.8 -24.0°
Sets 19:48:16 0° 25° (NNE) 3,392 5.5 -24.4°
